Abbeville, LA

11:38 AM CDT on August 31, 2016 (GMT -0500)
Abbeville

Weather History for KIYA - July, 2013

Change the Weather History Date:

Thursday, July 25, 2013

  Actual Average (KARA) Record (KARA)
Temperature  
Mean Temperature 83 °F 83 °F  
Max Temperature 91 °F 92 °F 98 °F (1997)
Min Temperature 75 °F 74 °F 69 °F (2000)
Degree Days  
Heating Degree Days 0 0  
Month to date heating degree days 0  
Since 1 June heating degree days 0  
Since 1 July heating degree days 0  
Cooling Degree Days 18 18  
Month to date cooling degree days 439  
Year to date cooling degree days 1480  
Since 1 June cooling degree days 910  
Growing Degree Days 33 (Base 50)    
Moisture  
Dew Point 74 °F    
Average Humidity 76    
Maximum Humidity 92    
Minimum Humidity 51    
Precipitation  
Precipitation 0.93 in 0.22 in 1.67 in (2011)
Month to date precipitation 5.36  
Year to date precipitation 34.49  
Sea Level Pressure  
Sea Level Pressure 30.01 in    
Wind  
Wind Speed 4 mph (SW)    
Max Wind Speed 24 mph    
Max Gust Speed 39 mph    
Visibility 10 miles    
Events Rain , Thunderstorm    
T = Trace of Precipitation, MM = Missing Value Source: NWS Daily Summary

Daily Weather History Graph

Daily Weather History Graph

Search for Another Location

Airport or City:

Trip Planner

Search our weather history database for the weather conditions in past years. The results will help you decide how hot, cold, wet, or windy it might be!

Date:

Astronomy

Jul. 25, 2013 Rise Set
Actual Time 6:23 AM CDT 8:05 PM CDT
Civil Twilight 5:57 AM CDT 8:32 PM CDT
Nautical Twilight 5:25 AM CDT 9:03 PM CDT
Astronomical Twilight 4:52 AM CDT 9:37 PM CDT
Moon 10:08 PM CDT (7/25) 9:33 AM CDT (7/25)
Length of Visible Light 14h 35m
Length of Day
13h 42m
Waning Gibbous, 88% of the Moon is Illuminated
Jul 25
Waning Gibbous
Jul 29
Last Quarter
Aug 6
New
Aug 14
First Quarter
Aug 20
Full

Hourly Weather History & Observations

Time (CDT) Temp. Heat Index Dew Point Humidity Pressure Visibility Wind Dir Wind Speed Gust Speed Precip Events Conditions
12:15 AM 81.5 °F 88.7 °F 76.6 °F 85% 29.95 in 10.0 mi Calm Calm - N/A   Scattered Clouds
12:35 AM 81.1 °F 88.0 °F 76.6 °F 86% 29.95 in 10.0 mi Calm Calm - N/A   Mostly Cloudy
12:55 AM 81.0 °F 87.9 °F 77.0 °F 88% 29.95 in 10.0 mi West 3.5 mph - N/A   Overcast
1:15 AM 81.0 °F 87.9 °F 77.0 °F 88% 29.95 in 10.0 mi WNW 3.5 mph - N/A   Mostly Cloudy
1:35 AM 81.5 °F 88.7 °F 76.6 °F 85% 29.95 in 10.0 mi West 3.5 mph - N/A   Overcast
1:55 AM 81.7 °F 89.0 °F 76.3 °F 84% 29.95 in 10.0 mi West 4.6 mph - N/A   Mostly Cloudy
2:15 AM 81.1 °F 87.8 °F 76.3 °F 85% 29.95 in 10.0 mi West 4.6 mph - N/A   Scattered Clouds
2:35 AM 80.6 °F 86.8 °F 76.3 °F 87% 29.96 in 10.0 mi WNW 3.5 mph - N/A   Scattered Clouds
2:55 AM 80.6 °F 86.9 °F 76.6 °F 88% 29.95 in 10.0 mi WSW 3.5 mph - N/A   Mostly Cloudy
3:15 AM 81.5 °F 88.7 °F 76.5 °F 85% 29.96 in 10.0 mi WSW 5.8 mph - N/A   Mostly Cloudy
3:35 AM 81.9 °F 89.2 °F 76.3 °F 83% 29.96 in 10.0 mi West 5.8 mph - N/A   Overcast
3:55 AM 81.9 °F 89.2 °F 76.1 °F 83% 29.96 in 10.0 mi West 4.6 mph - N/A   Overcast
4:15 AM 81.7 °F 89.0 °F 76.3 °F 84% 29.96 in 10.0 mi West 4.6 mph - N/A   Mostly Cloudy
4:35 AM 81.7 °F 89.0 °F 76.3 °F 84% 29.96 in 10.0 mi WSW 3.5 mph - N/A   Overcast
4:55 AM 81.7 °F 89.2 °F 76.6 °F 85% 29.97 in 10.0 mi West 3.5 mph - N/A   Overcast
5:15 AM 81.9 °F 89.5 °F 76.6 °F 84% 29.97 in 10.0 mi WSW 4.6 mph - N/A Thunderstorm Overcast
5:35 AM 81.7 °F 89.2 °F 76.6 °F 85% 29.97 in 10.0 mi WSW 3.5 mph - N/A Thunderstorm Overcast
5:55 AM 77.7 °F - 72.9 °F 85% 29.98 in 1.0 mi NNW 24.2 mph 39.1 mph 0.01 in Rain , Thunderstorm Heavy Thunderstorms and Rain
6:15 AM 75.6 °F - 72.7 °F 91% 29.99 in 2.5 mi NW 5.8 mph - 0.02 in Rain , Thunderstorm Heavy Thunderstorms and Rain
6:35 AM 76.1 °F - 73.4 °F 91% 30.00 in 7.0 mi South 6.9 mph - 0.04 in Rain , Thunderstorm Light Thunderstorms and Rain
6:55 AM 76.5 °F - 73.8 °F 91% 30.00 in 2.0 mi Calm Calm - 0.07 in Rain , Thunderstorm Light Thunderstorms and Rain
7:15 AM 76.1 °F - 73.4 °F 91% 30.00 in 4.0 mi SE 8.1 mph - 0.03 in Rain , Thunderstorm Heavy Thunderstorms and Rain
7:35 AM 76.5 °F - 73.9 °F 92% 30.01 in 10.0 mi SSE 4.6 mph - 0.06 in Rain , Thunderstorm Rain
7:55 AM 76.5 °F - 74.1 °F 92% 30.02 in 10.0 mi ESE 3.5 mph - 0.10 in Rain , Thunderstorm Light Thunderstorms and Rain
8:15 AM 77.2 °F - 74.5 °F 91% 30.03 in 10.0 mi Calm Calm - 0.02 in Rain Light Rain
8:35 AM 76.6 °F - 74.3 °F 92% 30.04 in 10.0 mi East 3.5 mph - 0.06 in Thunderstorm Overcast
8:55 AM 77.0 °F - 74.3 °F 91% 30.03 in 10.0 mi Calm Calm - 0.09 in Thunderstorm Overcast
9:15 AM 78.4 °F - 75.0 °F 89% 30.03 in 10.0 mi ESE 4.6 mph - 0.02 in Thunderstorm Overcast
9:35 AM 80.2 °F 85.2 °F 74.5 °F 83% 30.04 in 10.0 mi SSE 6.9 mph - 0.05 in Thunderstorm Thunderstorm
9:55 AM 80.2 °F 85.5 °F 75.4 °F 85% 30.04 in 10.0 mi South 6.9 mph - 0.09 in Thunderstorm Thunderstorm
10:15 AM 81.3 °F 87.6 °F 75.2 °F 82% 30.05 in 10.0 mi South 3.5 mph - 0.04 in Thunderstorm Thunderstorm
10:35 AM 82.4 °F 89.0 °F 74.7 °F 77% 30.05 in 10.0 mi SW 3.5 mph - 0.08 in Thunderstorm Overcast
10:55 AM 83.5 °F 91.2 °F 75.2 °F 76% 30.06 in 10.0 mi SW 6.9 mph - 0.12 in   Overcast
11:15 AM 81.5 °F 87.2 °F 74.1 °F 78% 30.06 in 10.0 mi SW 6.9 mph - 0.03 in   Overcast
11:35 AM 82.4 °F 87.9 °F 73.0 °F 73% 30.06 in 10.0 mi SW 6.9 mph - 0.07 in   Mostly Cloudy
11:55 AM 82.9 °F 89.1 °F 73.4 °F 73% 30.05 in 10.0 mi Calm Calm - 0.10 in   Scattered Clouds
12:15 PM 87.3 °F 97.2 °F 75.6 °F 68% 30.04 in 10.0 mi North 8.1 mph - 0.03 in   Scattered Clouds
12:35 PM 87.3 °F 97.2 °F 75.4 °F 68% 30.04 in 10.0 mi NNW 8.1 mph - 0.06 in   Scattered Clouds
12:55 PM 86.9 °F 95.9 °F 74.8 °F 67% 30.04 in 10.0 mi NW 8.1 mph - 0.09 in   Scattered Clouds
1:15 PM 87.8 °F 97.6 °F 75.0 °F 66% 30.04 in 10.0 mi NNW 5.8 mph - 0.02 in   Scattered Clouds
1:35 PM 88.9 °F 97.1 °F 73.4 °F 60% 30.04 in 10.0 mi NNE 3.5 mph - 0.04 in   Mostly Cloudy
1:55 PM 88.0 °F 95.6 °F 72.9 °F 61% 30.03 in 10.0 mi NNW 5.8 mph - 0.07 in   Mostly Cloudy
2:15 PM 89.8 °F 96.5 °F 71.6 °F 55% 30.03 in 10.0 mi Calm Calm - 0.01 in   Mostly Cloudy
2:35 PM 88.7 °F 94.8 °F 71.1 °F 56% 30.03 in 10.0 mi Calm Calm - 0.04 in   Mostly Cloudy
2:55 PM 89.2 °F 96.9 °F 72.9 °F 58% 30.03 in 10.0 mi ENE 4.6 mph - 0.05 in   Mostly Cloudy
3:15 PM 90.3 °F 97.7 °F 72.3 °F 55% 30.02 in 10.0 mi NE 4.6 mph - 0.01 in   Scattered Clouds
3:35 PM 91.4 °F 98.4 °F 71.4 °F 52% 30.02 in 10.0 mi North 5.8 mph - 0.03 in   Scattered Clouds
3:55 PM 91.2 °F 97.5 °F 70.9 °F 51% 30.01 in 10.0 mi NNE 5.8 mph - 0.04 in   Scattered Clouds
4:15 PM 89.2 °F 95.4 °F 71.2 °F 55% 30.01 in 10.0 mi East 4.6 mph - 0.01 in   Mostly Cloudy
4:35 PM 89.2 °F 97.9 °F 73.9 °F 60% 30.01 in 10.0 mi SSE 5.8 mph - 0.02 in   Mostly Cloudy
4:55 PM 87.6 °F 93.5 °F 71.2 °F 58% 30.02 in 10.0 mi SSW 10.4 mph - 0.02 in   Scattered Clouds
5:15 PM 85.3 °F 91.5 °F 72.1 °F 65% 30.02 in 10.0 mi SSW 6.9 mph 16.1 mph 0.01 in   Scattered Clouds
5:35 PM 87.8 °F 93.8 °F 71.2 °F 58% 30.01 in 10.0 mi Calm Calm - 0.02 in   Scattered Clouds
5:55 PM 89.1 °F 95.0 °F 70.9 °F 55% 30.01 in 10.0 mi Calm Calm - 0.02 in   Clear
6:15 PM 90.0 °F 96.4 °F 71.2 °F 54% 30.01 in 10.0 mi SW 3.5 mph - 0.01 in   Scattered Clouds
6:35 PM 90.3 °F 96.7 °F 70.9 °F 53% 30.01 in 10.0 mi Calm Calm - 0.01 in   Scattered Clouds
6:55 PM 88.9 °F 97.6 °F 73.9 °F 61% 30.01 in 10.0 mi SE 3.5 mph - 0.02 in   Scattered Clouds
7:15 PM 87.3 °F 97.2 °F 75.4 °F 68% 30.00 in 10.0 mi South 4.6 mph - N/A   Clear
7:35 PM 85.5 °F 95.0 °F 75.7 °F 73% 30.01 in 10.0 mi SSE 3.5 mph - 0.01 in   Clear
7:55 PM 84.7 °F 92.5 °F 74.3 °F 71% 30.01 in 10.0 mi Calm Calm - 0.01 in   Clear
8:15 PM 84.0 °F 92.2 °F 75.2 °F 75% 30.01 in 10.0 mi Calm Calm - N/A   Clear
8:35 PM 83.3 °F 90.5 °F 74.7 °F 75% 30.01 in 10.0 mi Calm Calm - 0.01 in   Clear
8:55 PM 81.9 °F 88.0 °F 74.5 °F 78% 30.01 in 10.0 mi Calm Calm - 0.01 in   Clear
9:15 PM 82.4 °F 88.2 °F 73.4 °F 74% 30.02 in 10.0 mi South 3.5 mph - N/A   Clear
9:35 PM 81.7 °F 87.6 °F 74.3 °F 78% 30.02 in 10.0 mi South 3.5 mph - N/A   Clear
9:55 PM 81.5 °F 87.4 °F 74.5 °F 79% 30.03 in 10.0 mi Calm Calm - 0.01 in   Clear
10:15 PM 80.6 °F 86.2 °F 75.2 °F 84% 30.03 in 10.0 mi Calm Calm - N/A   Clear
10:35 PM 80.6 °F 86.2 °F 75.4 °F 84% 30.03 in 10.0 mi Calm Calm - N/A   Clear
10:55 PM 80.4 °F 85.8 °F 75.2 °F 84% 30.03 in 10.0 mi Calm Calm - N/A   Clear
11:15 PM 79.5 °F - 75.7 °F 88% 30.04 in 10.0 mi Calm Calm - 0.01 in   Clear
11:35 PM 79.2 °F - 76.1 °F 90% 30.05 in 10.0 mi Calm Calm - 0.01 in   Clear
11:55 PM 79.5 °F - 75.9 °F 89% 30.04 in 10.0 mi Calm Calm - 0.01 in   Clear